This is the latest recevied weather packets stored in our database for station/object NG6B-2. If no packets are shown the sender has not sent any weather packets the latest 10 day(s).
| Time | Temp. | Humidity | Pressure | Rain* | Wind** | Luminosity | Snow |
|---|---|---|---|---|---|---|---|
| 1777532443 | 17.22° C | 21% | 1007.5 hPa | 0 mm | - | - | - |
| 1777530642 | 18.33° C | 20% | 1007.5 hPa | 0 mm | - | - | - |
| 1777528841 | 18.89° C | 18% | 1007.9 hPa | 0 mm | - | - | - |
| 1777527040 | 20° C | 17% | 1008 hPa | 0 mm | - | - | - |
| 1777525239 | 21.11° C | 16% | 1008 hPa | 0 mm | - | - | - |
| 1777523438 | 21.11° C | 15% | 1008.3 hPa | 0 mm | - | - | - |
| 1777521637 | 20.56° C | 14% | 1007.8 hPa | 0 mm | - | - | - |
| 1777519836 | 21.11° C | 13% | 1007.7 hPa | 0 mm | - | - | - |
| 1777518035 | 21.67° C | 14% | 1007 hPa | 0 mm | - | - | - |
| 1777516234 | 22.78° C | 12% | 1006.7 hPa | 0 mm | - | - | - |
| 1777514433 | 23.89° C | 10% | 1006.4 hPa | 0 mm | - | - | - |
| 1777512632 | 24.44° C | 8% | 1006 hPa | 0 mm | - | - | - |
| 1777510831 | 25° C | 8% | 1006.4 hPa | 0 mm | - | - | - |
| 1777509030 | 25.56° C | 7% | 1006.1 hPa | 0 mm | - | - | - |
| 1777507230 | 26.11° C | 7% | 1006.2 hPa | 0 mm | - | - | - |
| 1777505428 | 26.11° C | 6% | 1006.5 hPa | 0 mm | - | - | - |
| 1777503627 | 26.67° C | 7% | 1006.5 hPa | 0 mm | - | - | - |
| 1777501826 | 26.67° C | 8% | 1006.8 hPa | 0 mm | - | - | - |
| 1777500025 | 26.67° C | 7% | 1007.5 hPa | 0 mm | - | - | - |
| 1777498224 | 26.67° C | 7% | 1007.8 hPa | 0 mm | - | - | - |
| 1777496423 | 27.22° C | 6% | 1008.4 hPa | 0 mm | - | - | - |
| 1777494622 | 27.22° C | 6% | 1008.6 hPa | 0 mm | - | - | - |
| 1777492821 | 27.22° C | 6% | 1008.8 hPa | 0 mm | - | - | - |
| 1777491020 | 26.11° C | 7% | 1009.3 hPa | 0 mm | - | - | - |
| 1777489219 | 25° C | 9% | 1009.6 hPa | 0 mm | - | - | - |
* Rain latest hour (hover to see other rain measurements)
** Current wind speed in m/s (hover to see current wind gust speed)